Submittal Forms
Current Contests
Recent Contests

Club Activity Tracker - Southern California Contest Club (from list of calls managed by WA7BNM)

Recent postings for the selected club or group are listed below. Other than the call used, all calls listed are only those associated with the club or group. Click on a call to see the details of the posting.
Status Key: new=new posting, update=update prior posting, move=change club/group, delete=delete prior posting.

Sort by   for past

TimestampCallContestClassPowerScoreStatus
2021-05-09 21:57:57N6GPArQPSOCWLP1,236new6413
2021-05-09 20:17:07K6RO50SprngSprntSingle OpHP1,755new6414
2021-05-09 19:36:16N6GP/R(N6GP)50SprngSprntRoverLP336new6414
2021-05-09 19:11:55NE6I50SprngSprntSingle OpLP12new6414
2021-05-09 17:51:33WA7BNM50SprngSprntSingle OpLP858new6414
2021-05-09 16:09:17KF6RY(W6ZL)Volta RTTYSOAB-6LP2,358,675new6411
2021-05-09 16:01:48W6ZL50SprngSprntSingle OpLP20new6414
2021-05-09 13:25:55N6DM50SprngSprntSingle OpLP200new6414
2021-05-09 07:36:03KI6RRNArQPSOMixedHP308new6413
2021-05-09 07:26:40W6KCArQPSOCWHP98new6413
 
2021-05-09 05:24:24N6UTC50SprngSprntSingle OpLP198new6414
2021-05-09 02:53:46KG6DNY50SprngSprntSingle OpLP6new6414
2021-05-08 21:59:22WA7BNMArQPSOMixedLP378new6413
2021-05-08 06:09:30WA6URYNewEngQPSingle OpHP2,976update6397
2021-05-08 02:31:58WA6URY7QPSOCWHP9,417new6394
2021-05-07 23:05:44N6WTKRC SSTSingle OpQRP12new6410
2021-05-07 05:28:12N6GPDeQPSingle OpLP80new6396
2021-05-07 03:02:49N5ZONCCC SprintSingle OpLP2,067new6409
2021-05-07 03:01:32KI6RRNNCCC SprintSingle OpLP1,147new6409
2021-05-06 04:03:30NT6Q(@N5ZO)CWopsTSingle OpHP42,048new6404
 
2021-05-06 04:03:25W6AYCCWopsTSingle OpLP11,660new6404
2021-05-06 04:02:04KI6RRNCWopsTSingle OpHP45,396new6404
2021-05-06 04:01:28W6LAXCWopsTSingle OpLP7,744new6404
2021-05-06 03:34:31WA6URYCWopsTSingle OpHP1,024new6404
2021-05-06 03:32:45KK6MCWopsTSingle OpHP1,681new6404
2021-05-06 03:15:05W6KCCWopsTSingle OpHP324new6404
2021-05-05 20:21:24N6NCCWopsTSingle OpLP4,356new6403
2021-05-05 20:12:15K6NRCWopsTSingle OpHP16,129new6403
2021-05-05 20:03:48W6AYCCWopsTSingle OpHP10,609new6403
2021-05-05 20:03:19NT6Q(@N5ZO)CWopsTSingle OpHP30,800new6403
 
2021-05-05 19:57:08WA6URYCWopsTSingle OpHP441new6403
2021-05-05 19:26:55W6KCCWopsTSingle OpHP225new6403
2021-05-05 19:19:07W6LAXCWopsTSingle OpLP289new6403
2021-05-05 14:05:08W6AYCCWopsTSingle OpLP6,083new6402
2021-05-05 13:26:33W6LAXCWopsTSingle OpHP256new6402
2021-05-05 00:45:52K6RO7QPSOSSBHP9new6394
2021-05-05 00:21:20NX6TDeQPM/SHP480new6396
 (K4RB,K3PS,N6KI,N6ERD,KI6RRN)
2021-05-05 00:16:31NX6TInQPM/SHP260new6395
 (KI6RRN,N6KI,K4RB)
2021-05-04 17:34:36K6MINewEngQPSingle OpHP9,590new6397
2021-05-04 17:29:10K6MI7QPSOCWHP6,525new6394
 
2021-05-04 09:40:06NX6T7QPM/SHP155,440new6394
 (N6KI,K4RB,KI6RRN)
2021-05-04 09:33:12NX6TNewEngQPM/SHP37,440new6397
 (N6KI,N6ERD,KI6RRN,K4RB)
2021-05-03 04:57:23N6GP7QPSOCWLP34,719new6394
2021-05-03 01:50:55KI6RRNNewEngQPSingle OpHP4,619new6397
2021-05-03 01:49:55KI6RRNInQPSingle OpHP240new6395
2021-05-03 01:48:57KI6RRNDeQPSingle OpHP800new6396
2021-05-03 01:48:03KI6RRN7QPSO(A)MixedHP40,110new6394
2021-05-03 01:01:33N6WTKRC SSTSingle OpHP1,275new6398
2021-05-03 00:10:50W7QM(W6PH)7QPCnty Exped SOLP105,600new6394
2021-05-02 23:51:11N6GPInQPSingle OpLP98new6395
 
2021-05-02 23:15:50N6GPNewEngQPSingle OpLP783new6397
2021-05-02 19:16:48WA7BNMDeQPSingle OpLP20new6396
2021-05-02 19:14:52WA7BNMNewEngQPSingle OpLP204new6397
2021-05-02 19:13:08WA7BNMInQPSingle OpLP15new6395
2021-05-02 19:11:43WA7BNM7QPSOMixedLP160new6394
2021-05-02 18:28:53WI6XInQPSingle OpHP60new6395
2021-05-02 18:27:51WI6XNewEngQPSingle OpHP1,292new6397
2021-05-02 18:27:02WI6XDeQPSingle OpHP20new6396
2021-05-02 18:25:26WI6X7QPSO(A)CWHP9,108new6394
2021-05-02 18:03:50N6MU7QPSOCWLP112,455new6394
 
2021-05-02 17:22:46K7N(K6ZH)7QPSOMixedHP203,077new6394
2021-05-02 16:33:41N7D(W6KC)7QPCnty Exped M/SHP130,788new6394
2021-05-02 15:48:19N7A7QPM/MHP465,596new6394
 (N7NR)
2021-05-02 07:06:28WN6K7QPSOMixedLP49,005new6394
2021-05-02 04:13:51AI6DO7QPSO(A)MixedQRP20,412new6394
2021-04-30 21:08:17N6WTKRC SSTSingle OpHP1,175new6391
2021-04-30 03:04:55N5ZONCCC SprintSingle OpLP2,610new6390
2021-04-29 15:45:00KI6RRNCWopsTSingle OpHP8,464new6386
2021-04-29 04:11:47W6KCCWopsTSingle OpLP783new6386
2021-04-29 04:04:37W6AYCCWopsTSingle OpLP10,296new6386
 
2021-04-29 04:03:29NT6Q(@N5ZO)CWopsTSingle OpHP33,088new6386
2021-04-29 03:58:14KK6MCWopsTSingle OpHP1,936new6386
2021-04-29 03:30:49W6LAXCWopsTSingle OpLP961new6386
2021-04-29 03:28:56WA6URYCWopsTSingle OpHP900new6386
2021-04-28 20:17:29N7LU(@WA6TQT)CWopsTSingle OpHP12,996new6385
2021-04-28 20:12:37K6NRCWopsTSingle OpHP19,600new6385
2021-04-28 20:02:28NT6Q(@N5ZO)CWopsTSingle OpHP33,489new6385
2021-04-28 19:56:26WA6URYCWopsTSingle OpHP676new6385
2021-04-28 19:33:52W6LAXCWopsTSingle OpLP225new6385
2021-04-28 19:30:41KK6MCWopsTSingle OpHP841new6385
 
2021-04-28 14:16:23W6AYCCWopsTSingle OpLP3,021new6384
2021-04-28 13:35:09W6LAXCWopsTSingle OpHP324new6384
2021-04-27 19:06:06K6NRFlQPSOABCWLP20,928new6375
2021-04-27 00:56:18K6LAFlQPSOABMixedHP60,486update6375
2021-04-26 22:30:53AA6AAFlQPSOABCWQRP52,704new6375
2021-04-26 22:14:34N4TPFlQPM/SMixedLP712,356new6375
 (KI6RRN)
2021-04-26 02:09:24N6GPFlQPSOABCWLP15,520new6375
2021-04-26 00:25:51WA6URYFlQPSOABCWHP10,716new6375
2021-04-25 22:54:37KI6RRNFlQPSOAB(A)MixedHP31,770new6375
2021-04-25 22:48:00K7JAFlQPSOABCWLP33,280new6375
 
2021-04-25 22:06:33WA7BNMFlQPSOABMixedLP3,572update6375
2021-04-25 22:04:10WI6XFlQPSOAB(A)MixedHP4,560new6375
2021-04-25 21:56:04W6KCFlQPSOAB(A)MixedHP9,412new6375
2021-04-25 19:41:18AI6DOFlQPSOABCWLP884new6375
2021-04-25 16:53:52N7DA432SprngSprntSingle OpQRP24new6367
2021-04-24 16:00:17N6GP432SprngSprntSingle OpLP60new6367
2021-04-24 00:09:13KG6DNY432SprngSprntSingle OpLP6new6367
2021-04-23 21:03:35K6NRKRC SSTSingle OpHP1,250new6371
2021-04-23 21:03:16N6WTKRC SSTSingle OpHP1,344new6371
2021-04-23 03:05:09N5ZONCCC SprintSingle OpLP2,120new6370
 
2021-04-23 02:36:12K6RO432SprngSprntSingle OpLP60new6367
2021-04-22 19:18:27K6NR432SprngSprntSingle OpLP36new6367
2021-04-22 15:57:38KI6RRN/4(@N4TP)CWopsTSingle OpLP11,881update6365
2021-04-22 04:21:22N6UTC432SprngSprntSingle OpLP76new6367
2021-04-22 04:10:33NT6Q(@N5ZO)CWopsTSingle OpHP31,832new6366
2021-04-22 04:04:11W6AYCCWopsTSingle OpLP11,990new6366
2021-04-22 03:49:19W6LAXCWopsTSingle OpLP2,548new6366
2021-04-22 03:46:19W6KCCWopsTSingle OpHP3,025new6366
2021-04-22 03:33:15WA6URYCWopsTSingle OpHP900new6366
2021-04-22 03:33:15AI6DO432SprngSprntSingle OpLP8new6367
 
2021-04-22 03:30:32KK6MCWopsTSingle OpHP900new6366
2021-04-21 20:05:45N7LU(@WA6TQT)CWopsTSingle OpHP19,321new6365
2021-04-21 20:04:45W6AYCCWopsTSingle OpLP6,724new6365
2021-04-21 20:04:09K6NRCWopsTSingle OpHP19,321new6365
2021-04-21 20:02:56NT6Q(@N5ZO)CWopsTSingle OpHP34,595new6365
2021-04-21 19:43:48KK6MCWopsTSingle OpHP900new6365
2021-04-21 19:42:47W6KCCWopsTSingle OpHP625new6365
2021-04-21 19:17:59W6LAXCWopsTSingle OpLP256new6365
2021-04-21 14:07:27W6KCCWopsTSingle OpHP4new6364
2021-04-21 14:04:58W6AYCCWopsTSingle OpLP4,355new6364
 
2021-04-21 13:43:41W6LAXCWopsTSingle OpHP676new6364
2021-04-20 22:40:28K6NRCQMM DXSOABHP66,895new6356
2021-04-19 20:18:10EA3HSOHolyland DXM/SHP3,901new6352
 (VE4EA)
2021-04-19 05:58:24K0XPCQMM DXSOSB/40LP24,160new6356
2021-04-19 01:18:55W6KCKRC SSTSingle OpHP20new6358
2021-04-19 01:02:45N6WTKRC SSTSingle OpLP1,134new6358
2021-04-19 00:13:25WA6URYCQMM DXSOABHP26,092new6356
2021-04-18 23:23:45W6YAWAPC DXSO Mixed FieldHP23,600new6354
2021-04-18 18:22:17N6GPMiQPSingle OpLP555new6357
2021-04-18 18:07:44KI6RRNMiQPM/SHP26,370update6357
 (KI6RRN)
 
2021-04-18 18:06:42N6GPOnQPSO CWLP858new5642
2021-04-18 18:01:05KI6RRNOnQPSO MixedHP27,924new5642
2021-04-16 21:02:12N6WTKRC SSTSingle OpHP1,650new6351
2021-04-16 03:03:13N5ZONCCC SprintSingle OpLP2,145new6350
2021-04-15 16:02:25K6FANeQPOut of StateHP12new6334
2021-04-15 05:20:15K6FANMQPSingle OpHP24new6335
2021-04-15 05:02:56K6FAGaQPSingle OpMixedHP504new6336
2021-04-15 04:51:04K6FAIG-RY RTTYSingle OpLP1new6340
2021-04-15 04:07:23NT6Q(@N5ZO)CWopsTSingle OpHP33,294new6347
2021-04-15 04:04:05W6AYCCWopsTSingle OpLP9,292new6347
 
2021-04-15 04:03:34K6NRCWopsTSingle OpHP15,376new6347
2021-04-15 04:01:54KI6RRNCWopsTSingle OpHP44,503new6347
2021-04-15 04:01:39W6LAXCWopsTSingle OpLP7,052new6347
2021-04-15 03:39:53W6KCCWopsTSingle OpHP2,450new6347
2021-04-14 20:04:53W6AYCCWopsTSingle OpHP16,384new6346
2021-04-14 20:02:24K6NRCWopsTSingle OpHP17,424new6346
2021-04-14 20:01:58NT6Q(@N5ZO)CWopsTSingle OpHP36,100new6346
2021-04-14 20:01:40KI6RRNCWopsTSingle OpHP28,392new6346
2021-04-14 19:45:35W6LAXCWopsTSingle OpLP1,024new6346
2021-04-14 19:11:56W6KCCWopsTSingle OpHP144new6346
 
2021-04-14 14:04:48W6AYCCWopsTSingle OpLP4,489new6345
2021-04-14 14:03:10WA6URYCWopsTSingle OpHP676new6345
2021-04-14 14:01:12W6LAXCWopsTSingle OpHP196new6345
2021-04-14 05:06:45N6GP222SprngSprntSingle OpLP42new6343
2021-04-14 04:27:19N6UTC222SprngSprntSingle OpLP24new6343
2021-04-14 02:00:14K6FGVNMQPSingle OpHP36new6335
2021-04-14 01:44:34K6FGVNDQPFixedHP675new6337
2021-04-14 01:32:34K6FGVNeQPFixedHP722new6334
2021-04-14 01:11:54K6FGVGaQPSingle OpSSBHP117new6336
2021-04-13 15:59:45N6GPNeQPOut of StateLP595update6334
 
2021-04-13 03:27:42N6GPNDQPOut of StateLP340new6337
2021-04-13 02:11:26N6GPGaQPSingle OpCWLP2,112new6336
2021-04-12 14:20:37N6GPLaQPFixed MixedLP12update6314
2021-04-12 14:17:13K3ESTJIDX CWM/2HP178,500update6331
 (K6AW)
2021-04-12 06:14:58N6GPNMQPSingle OpLP216new6335
2021-04-12 05:27:59N6GPMSQPSingle OpLP24new6315
2021-04-12 03:49:12KI6RRNNeQPOut of StateHP319new6334
2021-04-12 03:47:53KI6RRNNMQPSingle OpHP288new6335
2021-04-12 03:46:33KI6RRNNDQPOut of StateHP440new6337
2021-04-12 03:45:11KI6RRNGaQPSingle OpMixedHP3,115new6336
 
2021-04-12 03:03:06NX6TJIDX CWM/2HP153,582new6331
 (NX6T,N6CY,N7NR,K4RB,N6KI,KI6RRN,N6NC)
2021-04-12 00:53:14W6LAXKRC SSTSingle OpLP200new6339
2021-04-12 00:44:39WA6KHKGaQPSingle OpMixedHP31,779new6336
2021-04-11 17:50:03N6MUNMQPSingle OpLP7,320new6335
2021-04-11 17:07:35N6WTJIDX CWSOABHP2,013new6331
2021-04-11 13:09:25WN6KJIDX CWSOABLP32,305new6331
2021-04-11 04:29:49AI6DOJIDX CWSOSB/20LP238new6331
2021-04-09 03:05:49N5ZONCCC SprintSingle OpLP2,950new